Location: Easthampton
(42.2676°N, 72.6690°W)
Time: 08:34:35
(UTC+00:00)

Gurwin Techsat 1B - Pass Details

Date: 03 April 2023
Orbit: 811 x 813 km, 98.9° (Epoch: 02 June)

Event Time Altitude Azimuth Distance (km) Brightness Sun altitude
Rises 09:40:35 0° 353° (N) 3,348 11.9 -9.8°
Reaches altitude 10° 09:44:53 10° 320° (NW) 2,410 10.8 -9.0°
Maximum altitude 09:46:17 11° 304° (NW) 2,335 10.6 -8.8°
Drops below altitude 10° 09:47:41 10° 289° (WNW) 2,406 10.6 -8.5°
Enters shadow 09:48:52 - 277° (W) 2,574 10.6 -8.3°
